Tracking 28790 objects as of 19-Apr-2024
HD Live streaming from Space Station
objects crossing your sky now

COSMOS 397 DEB

Track COSMOS 397 DEB now!
10-day predictions


NORAD ID: 5018
Int'l Code: 1971-015M
Perigee: 577.3 km
Apogee: 2,119.9 km
Inclination: 65.7 °
Period: 112.5 minutes
Semi major axis: 7719 km
RCS: 0.1181 m2 (medium)
Launch date: February 25, 1971
Source: Commonwealth of Independent States (former USSR) (CIS)
Launch site: TYURATAM MISSILE AND SPACE COMPLEX (TTMTR)

Note: This is SATELLITE DEBRIS
Your satellite tracking list
Your tracking list is empty




NASA's NSSDC Master Catalog

Two Line Element Set (TLE):
1  5018U 71015M   24110.09443453  .00000156  00000-0  11053-3 0  9993
2  5018  65.7154  14.0665 0999168 167.9798 194.7109 12.80006409478296
Source of the keplerian elements: AFSPC